Weather History for Mobile, AL

Change the Weather History Date:

Thursday, November 18, 2010

  Actual Average Record
Temperature  
Mean Temperature 58 °F 59 °F  
Max Temperature 72 °F 70 °F 82 °F (1958)
Min Temperature 43 °F 48 °F 25 °F (1951)
Degree Days  
Heating Degree Days 7 7  
Month to date heating degree days 116 97  
Since 1 July heating degree days 140 152  
Cooling Degree Days 0 1  
Month to date cooling degree days 10 30  
Year to date cooling degree days 2765 2492  
Growing Degree Days 7 (Base 50)    
Moisture  
Dew Point 49 °F    
Average Humidity 75    
Maximum Humidity 96    
Minimum Humidity 53    
Precipitation  
Precipitation 0.00 in 0.17 in 2.52 in (2000)
Month to date precipitation 4.45 3.10  
Year to date precipitation 57.01 59.06  
Snow  
Snow 0.00 in 0.00 in 0.00 in (2002)
Month to date snowfall 0.0 0.0  
Since 1 July snowfall 0.0 0.0  
Snow Depth 0.00 in    
Sea Level Pressure  
Sea Level Pressure 30.19 in    
Wind  
Wind Speed 5 mph (NNE)    
Max Wind Speed 10 mph    
Max Gust Speed -    
Visibility 10 miles    
Events      
T = Trace of Precipitation, MM = Missing Value Source: NWS Daily Summary

Daily Weather History Graph

Daily Weather History Graph

Search for Another Location

Airport:

Trip Planner

Search our weather history database for the weather conditions in past years. The results will help you decide how hot, cold, wet, or windy it might be!

Date:

Astronomy

Nov. 18, 2010 Rise Set
Actual Time 6:21 AM CST 4:54 PM CST
Civil Twilight 5:56 AM CST 5:19 PM CST
Nautical Twilight 5:26 AM CST 5:49 PM CST
Astronomical Twilight 4:58 AM CST 6:17 PM CST
Moon 2:47 PM CST 3:26 AM CST
Length of Visible Light 11h 23m
Length of Day
10h 32m
Waxing Gibbous, 91% of the Moon is Illuminated
Nov 18
Waxing Gibbous
Nov 21
Full
Nov 28
Last Quarter
Dec 5
New
Dec 13
First Quarter

Hourly Weather History & Observations

Time (CST) Temp. Dew Point Humidity Pressure Visibility Wind Dir Wind Speed Gust Speed Precip Events Conditions
12:56 AM 43.0 °F 39.9 °F 89% 30.15 in 10.0 mi Calm Calm - N/A   Clear
1:56 AM 43.0 °F 41.0 °F 93% 30.16 in 10.0 mi Calm Calm - N/A   Scattered Clouds
2:56 AM 46.0 °F 44.1 °F 93% 30.15 in 10.0 mi Calm Calm - N/A   Mostly Cloudy
3:56 AM 46.9 °F 43.0 °F 86% 30.15 in 10.0 mi Calm Calm - N/A   Scattered Clouds
4:56 AM 48.9 °F 45.0 °F 86% 30.18 in 10.0 mi NE 8.1 mph - N/A   Mostly Cloudy
5:56 AM 50.0 °F 43.0 °F 77% 30.18 in 10.0 mi ENE 4.6 mph - N/A   Mostly Cloudy
6:56 AM 51.1 °F 44.1 °F 77% 30.19 in 10.0 mi ESE 3.5 mph - N/A   Mostly Cloudy
7:56 AM 55.9 °F 46.9 °F 72% 30.20 in 10.0 mi ESE 6.9 mph - N/A   Scattered Clouds
8:56 AM 61.0 °F 48.0 °F 62% 30.21 in 10.0 mi ESE 4.6 mph - N/A   Overcast
9:56 AM 64.0 °F 50.0 °F 60% 30.22 in 10.0 mi SE 5.8 mph - N/A   Mostly Cloudy
10:39 AM 64.4 °F 51.8 °F 64% 30.22 in 10.0 mi Calm Calm - N/A   Mostly Cloudy
10:56 AM 64.9 °F 51.1 °F 61% 30.21 in 10.0 mi Calm Calm - N/A   Overcast
11:35 AM 69.8 °F 53.6 °F 56% 30.20 in 10.0 mi SSE 4.6 mph - N/A   Mostly Cloudy
11:56 AM 68.0 °F 54.0 °F 61% 30.19 in 10.0 mi Variable 3.5 mph - N/A   Mostly Cloudy
12:56 PM 70.0 °F 54.0 °F 57% 30.16 in 10.0 mi Variable 4.6 mph - N/A   Mostly Cloudy
1:56 PM 70.0 °F 51.1 °F 51% 30.13 in 10.0 mi Calm Calm - N/A   Scattered Clouds
2:56 PM 71.1 °F 53.1 °F 53% 30.14 in 10.0 mi WNW 8.1 mph - N/A   Scattered Clouds
3:56 PM 68.0 °F 52.0 °F 56% 30.14 in 10.0 mi NW 4.6 mph - N/A   Scattered Clouds
4:56 PM 63.0 °F 52.0 °F 67% 30.17 in 10.0 mi NW 9.2 mph - N/A   Scattered Clouds
5:56 PM 59.0 °F 51.1 °F 75% 30.20 in 10.0 mi NNW 6.9 mph - N/A   Mostly Cloudy
6:56 PM 57.0 °F 50.0 °F 77% 30.22 in 10.0 mi NNW 10.4 mph - N/A   Mostly Cloudy
7:56 PM 55.9 °F 50.0 °F 80% 30.23 in 10.0 mi NNW 6.9 mph - N/A   Partly Cloudy
8:56 PM 55.9 °F 50.0 °F 80% 30.24 in 10.0 mi North 6.9 mph - N/A   Mostly Cloudy
9:56 PM 54.0 °F 50.0 °F 86% 30.25 in 10.0 mi North 5.8 mph - N/A   Scattered Clouds
10:56 PM 53.1 °F 50.0 °F 89% 30.24 in 10.0 mi North 5.8 mph - N/A   Clear
11:56 PM 52.0 °F 48.9 °F 89% 30.23 in 10.0 mi North 6.9 mph - N/A   Clear